Location: *
(43.7000°S, 168.7000°W)
Time: 14:50:23
(UTC+00:00)

CZ-2D R/B - Pass Details

Date: 07 July 2020
Orbit: 521 x 538 km, 97.4° (Epoch: 03 August)

Event Time Altitude Azimuth Distance (km) Brightness Sun altitude
Rises 17:37:39 0° 17° (NNE) 2,668 7.4 -12.3°
Reaches altitude 10° 17:39:44 10° 18° (NNE) 1,789 6.5 -11.9°
Maximum altitude 17:43:36 79° 104° (ESE) 558 3.4 -11.3°
Drops below altitude 10° 17:47:33 10° 190° (S) 1,827 5.7 -10.6°
Sets 17:49:42 0° 191° (S) 2,731 6.6 -10.2°
